Details From EDLP - Paderborn Lippstadt
To EDLW - Dortmund-Wickede
Flight Number -
Tags generated
Created
Modified
Stats Distance 38 nm / 70 km
Max Altitude 0 ft / 0 m
Waypoints 2
Social Downloads 1
Likes 0
Share VATSIM

Download

Looking for another format? Having issues loading an existing format? Contact us
Advertisement - Login to hide

Notes

Basic altitude profile: - Ascent Rate: 2500ft/min - Ascent Speed: 250kts - Cruise Altitude: 35000ft - Cruise Speed: 420kts - Descent Rate: 1500ft/min - Descent Speed: 250kts Options: - Use NATs: no - Use PACOTS: no - Use low airways: no - Use high airways: no

Route

EDLP EDLW

ID Type Via Altitude Latitude Longitude Leg Dist Tot Dist Heading (true) Name
O EDLP APT - 0 ft / 0 m 51.61417˚ 8.61634˚ - 0 nm - Paderborn Lippstadt
O EDLW APT - 0 ft / 0 m 51.51911˚ 7.61445˚ 37 nm 37 nm 262° / 261° Dortmund-Wickede

Altitude Profile

Advertisement - Login to hide

EDLP

Details ICAO EDLP (PAD)
Name Paderborn Lippstadt
Region Germany - Civil
Timezone Europe/Berlin (UTC+2.0)
Stats Elevation 699 ft / 213 m (AMSL)
Location 51.614166° 8.616336°
Runways 1
Magnetic Variation 2.417° E

METAR

EDLP 260620Z 12004KT CAVOK 20/14 Q1021

Decode

TAF

TAF EDLP 260500Z 2606/2706 12004KT CAVOK BECMG 2607/2609 10009KT BECMG 2617/2619 12004KT

Decode

Departure Runways

ID Width Length Bearing (true) Bearing (mag) Surface Threshold Offset Overrun Length
06 148 ft / 45 m 7,136 ft / 2,175 m 57.28° 54.86° Asphalt 0 ft / 0 m 1,066 ft / 325 m
24 148 ft / 45 m 7,136 ft / 2,175 m 237.30° 234.88° Asphalt 0 ft / 0 m 397 ft / 121 m

EDLW

Details ICAO EDLW (DTM)
Name Dortmund-Wickede
Region Germany - Civil
Timezone Europe/Berlin (UTC+2.0)
Stats Elevation 425 ft / 130 m (AMSL)
Location 51.519107° 7.614447°
Runways 1
Magnetic Variation 2.118° E

METAR

EDLW 260620Z 11005KT CAVOK 20/15 Q1020

Decode

TAF

TAF EDLW 260500Z 2606/2706 VRB03KT CAVOK BECMG 2607/2609 08009KT BECMG 2618/2621 09004KT

Decode

Destination Runways

ID Width Length Bearing (true) Bearing (mag) Surface Threshold Offset Overrun Length
06 148 ft / 45 m 6,546 ft / 1,995 m 60.50° 58.38° Asphalt 984 ft / 300 m 197 ft / 60 m
24 148 ft / 45 m 6,546 ft / 1,995 m 240.52° 238.40° Asphalt 984 ft / 300 m 197 ft / 60 m

Approach Navaids

Runway Type Ident Frequency Range Bearing (true) Bearing (mag) Slope Elevation
06 Localiser IDWE 109.15 MHz 18 nm / 33 km 60.52° 58.41° - 425 ft / 130 m (AMSL)
06 Glidescope IDWE 109.15 MHz 10 nm / 19 km 60.51° 58.39° 3.00° 425 ft / 130 m (AMSL)
24 Localiser IDWW 110.30 MHz 18 nm / 33 km 240.49° 238.37° - 425 ft / 130 m (AMSL)
24 Glidescope IDWW 110.30 MHz 10 nm / 19 km 240.51° 238.39° 3.00° 425 ft / 130 m (AMSL)

Popular Alternatives